Regional Weather Roundup
Issued by NWS Newport/Morehead, NC

Current Version | Previous Version | Graphics & Text | Print | Product List | Glossary Off
Versions: 1 2 3 4 5 6 7 8 9 10 11 12 13 14 15 16 17 18 19 20 21 22 23 24 25 26 27 28 29 30 31 32 33 34 35 36 37 38 39 40 41 42 43 44 45 46 47 48 49 50

234
ASUS42 KMHX 181213
RWRMHX
WEATHER ROUNDUP FOR EASTERN NORTH CAROLINA
NATIONAL WEATHER SERVICE NEWPORT/MOREHEAD CITY NC
700 AM EST THU JAN 18 2018

NOTE: "FAIR" INDICATES FEW OR NO CLOUDS BELOW 12,000 FEET
WITH NO SIGNIFICANT WEATHER AND/OR OBSTRUCTIONS TO VISIBILITY

NCZ015>017-031-032-045>047-102-103-181300-
NORTH COAST

CITY           SKY/WX    TMP DP  RH WIND       PRES   REMARKS
EDENTON        FAIR      24  15  67 NW8       30.21R
ELIZABETH CITY CLOUDY    23  14  68 NW14      30.19R WCI  11
KITTY HAWK       N/A     24  22  96 NW13G20   30.11S WCI  12
MANTEO         CLOUDY    24  18  79 N12G18    30.13S WCI  13

$$

NCZ045>047-081-094-103-104-181300-
CENTRAL COAST

CITY           SKY/WX    TMP DP  RH WIND       PRES   REMARKS
FRISCO         CLOUDY    26  22  84 NW16G30   30.14R WCI  14

$$

NCZ095-097-098-100-101-181300-
SOUTHERN COAST

CITY           SKY/WX    TMP DP  RH WIND       PRES   REMARKS
BEAUFORT       FLURRIES  25  16  68 NW18      30.21R WCI  11
CEDAR ISLAND   NOT AVBL
JACKSONVILLE   MOCLDY    24  19  81 NW14      30.25R WCI  12
PINEY ISLAND   NOT AVBL
WILMINGTON     FAIR      23  15  71 NW18      30.26R WCI   9


$$

NCZ011>013-027>030-043-044-078>080-089-090>093-098-181300-
COASTAL PLAIN

CITY           SKY/WX    TMP DP  RH WIND       PRES   REMARKS
AHOSKIE        FAIR      18  12  76 CALM      30.24R
CLINTON        FAIR      20  16  84 CALM      30.29R
ELIZABETHTOWN  NOT AVBL
GOLDSBORO      FAIR      20  11  69 W10       30.25R WCI   8
GREENVILLE     FAIR      23  16  74 NW8       30.26R
HAVELOCK       NOT AVBL
KENANSVILLE    FAIR      19  12  73 NW9       30.27R
KINSTON        FAIR      22  13  71 NW8       30.26R
NEW BERN       CLOUDY    23  14  68 NW13      30.24R WCI  11
RICHLANDS      FAIR      21  15  78 VRB6      30.26R
ROCKY MOUNT    FAIR      17  11  77 NW6       30.25R
WASHINGTON     FAIR      22  13  67 NW5       30.24R
WHITEVILLE     FAIR      22  17  79 W3        30.30R

$$

AMZ130-135-150-152-154-156-158-170-250-252-270-ANZ085-086-088-633-658-670-181300-
MARINE OBSERVATIONS

STATION/POSITION TIME  TEMP    WIND        PRES    WAVE   SWELL
                       AIR SEA DIR/SP/G            HT/PER HT/PER
                 (UTC) (F)     (DEG/KT/KT) (MB)    (FT/S) (FT/S)
CHESAPEAKE LIGHT NOT AVBL
64 E VA BEACH    1150   33 55  330/ 31/ 37 1016.5   11/ 8
DUCK             1142   25 38  330/ 23/ 26 1019.4
2 E DUCK         1200      40                N/A     8/ 7   2/11
OREGON INLET     1142   24 37  320/ 19/ 25 1019.6
13E OREGON INLT  1148      43                N/A    11/ 8   7/17
HATTERAS CG      1142   26 40  330/ 27/ 34 1019.6
DIAMOND BUOY     1200   30 63  330/ 27/ 35 1019.8
CAPE LOOKOUT     1200          330/ 18/ 23 1022.5
BEAUFORT LAB     1142   25 43  330/ 10/ 19 1022.8
30 SE NEW RVR IN 1108   32 60  360/ 21/ 29 1022.2
30 SE NEW RVR IN 1200      60                N/A     7/ 6   2/11
27 SE WRIGHTSVLE 1108   32 61  350/ 27/ 39 1023.4
5 SE WRIGHTSVLE  1108   29 47  320/ 16/ 25 1023.1
225 S CAPE HAT   1150   54 70  300/ 31/ 39 1015.7   14/ 9  10/ 9
41 SE CHARLESTON 1200   34     310/ 21/ 29 1026.4

$$




USA.gov is the U.S. government's official web portal to all federal, state and local government web resources and services.